DLH8LW EDDH-ESGG

Flight info

Callsign DLH8LW
Flight time 0h 50m
Altitude 35000
Route SOKWO1G/33 SOKWO T814 EXNEL M105 AMRAK DCT GOTEX N873 LOBBI
Aircraft A20N/M-SDE2E3FGHIRWXY/LB1

Departure

Time 2026-05-05 15:30
Airport Hamburg Helmut Schmidt Airport (EDDH)

Arrival

Time 2026-05-05 16:20
Airport Göteborg Landvetter Airport (ESGG)
Time Latitude Longitude Altitude Speed Heading
2026-05-05 15:12 53.63112 10.00373 62 ft 0 kts 87°
2026-05-05 15:23 53.63111 10.00366 62 ft 2 kts 87°
2026-05-05 15:23 53.63110 10.00341 62 ft 2 kts 87°
2026-05-05 15:23 53.63110 10.00316 62 ft 2 kts 87°
2026-05-05 15:23 53.63109 10.00291 62 ft 2 kts 87°
2026-05-05 15:24 53.63108 10.00266 62 ft 2 kts 87°
2026-05-05 15:24 53.63107 10.00241 62 ft 2 kts 87°
2026-05-05 15:24 53.63109 10.00215 62 ft 2 kts 118°
2026-05-05 15:24 53.63118 10.00196 62 ft 2 kts 148°
2026-05-05 15:25 53.63129 10.00188 62 ft 0 kts 173°
2026-05-05 15:25 53.63136 10.00188 62 ft 1 kts 177°
2026-05-05 15:25 53.63137 10.00188 62 ft 0 kts 176°
2026-05-05 15:27 53.63133 10.00188 62 ft 1 kts 176°
2026-05-05 15:27 53.63110 10.00192 62 ft 4 kts 175°
2026-05-05 15:27 53.63069 10.00182 62 ft 6 kts 204°
2026-05-05 15:28 53.63024 10.00139 62 ft 8 kts 212°
2026-05-05 15:28 53.62974 10.00084 62 ft 8 kts 213°
2026-05-05 15:28 53.62926 10.00014 62 ft 9 kts 238°
2026-05-05 15:28 53.62893 9.99902 62 ft 11 kts 243°
2026-05-05 15:29 53.62862 9.99788 62 ft 7 kts 268°
2026-05-05 15:29 53.62899 9.99719 62 ft 9 kts 328°
2026-05-05 15:29 53.63126 9.99524 62 ft 75 kts 333°
2026-05-05 15:29 53.63819 9.98922 62 ft 145 kts 333°
2026-05-05 15:30 53.64826 9.98039 357 ft 174 kts 334°
2026-05-05 15:30 53.65896 9.97058 1134 ft 178 kts 333°
2026-05-05 15:30 53.66938 9.96009 1943 ft 180 kts 334°
2026-05-05 15:30 53.68037 9.95044 2741 ft 183 kts 341°
2026-05-05 15:31 53.69308 9.94529 3326 ft 196 kts 357°
2026-05-05 15:31 53.70693 9.94524 3982 ft 207 kts
2026-05-05 15:31 53.72170 9.94591 4551 ft 225 kts
2026-05-05 15:31 53.73765 9.95127 5224 ft 240 kts 21°
2026-05-05 15:32 53.75250 9.96467 5920 ft 254 kts 31°
2026-05-05 15:32 53.76772 9.98138 6572 ft 270 kts 32°
2026-05-05 15:32 53.78340 9.99893 7414 ft 278 kts 32°
2026-05-05 15:32 53.79968 10.01704 8308 ft 283 kts 31°
2026-05-05 15:33 53.81629 10.03539 9132 ft 290 kts 31°
2026-05-05 15:33 53.83307 10.05384 9706 ft 296 kts 31°
2026-05-05 15:33 53.85035 10.07280 9905 ft 297 kts 31°
2026-05-05 15:33 53.86773 10.09187 9971 ft 301 kts 31°
2026-05-05 15:34 53.88635 10.10910 10318 ft 315 kts 16°
2026-05-05 15:34 53.90836 10.11430 10731 ft 328 kts 353°
2026-05-05 15:34 53.93085 10.10660 11301 ft 337 kts 342°
2026-05-05 15:34 53.95356 10.09646 12100 ft 342 kts 342°
2026-05-05 15:35 53.97677 10.08624 12898 ft 346 kts 342°
2026-05-05 15:35 53.99996 10.07624 13670 ft 350 kts 342°
2026-05-05 15:35 54.03157 10.06278 14688 ft 355 kts 342°
2026-05-05 15:35 54.04740 10.05606 15177 ft 358 kts 342°
2026-05-05 15:36 54.07175 10.04585 15904 ft 362 kts 342°
2026-05-05 15:36 54.09593 10.03402 16591 ft 362 kts 333°
2026-05-05 15:36 54.11783 10.01360 17292 ft 359 kts 320°
2026-05-05 15:36 54.13608 9.98569 17971 ft 356 kts 309°
2026-05-05 15:37 54.15274 9.95428 18664 ft 358 kts 307°
2026-05-05 15:37 54.16924 9.92242 19340 ft 361 kts 307°
2026-05-05 15:37 54.18585 9.89041 19947 ft 365 kts 307°
2026-05-05 15:37 54.20275 9.85800 20566 ft 369 kts 308°
2026-05-05 15:38 54.21997 9.82512 21197 ft 372 kts 308°
2026-05-05 15:38 54.23817 9.79334 21807 ft 378 kts 312°
2026-05-05 15:38 54.25774 9.76370 22412 ft 384 kts 316°
2026-05-05 15:38 54.27898 9.73566 23007 ft 389 kts 319°
2026-05-05 15:39 54.30092 9.70813 23597 ft 393 kts 319°
2026-05-05 15:39 54.32308 9.68058 24158 ft 397 kts 319°
2026-05-05 15:39 54.34552 9.65300 24702 ft 401 kts 322°
2026-05-05 15:39 54.37083 9.63263 25166 ft 416 kts 339°
2026-05-05 15:40 54.39990 9.62611 25662 ft 431 kts 357°
2026-05-05 15:40 54.42985 9.63320 26173 ft 439 kts
2026-05-05 15:40 54.45986 9.64357 26650 ft 443 kts
2026-05-05 15:40 54.49006 9.65409 27103 ft 447 kts
2026-05-05 15:41 54.52058 9.66443 27549 ft 449 kts
2026-05-05 15:41 54.55125 9.67441 27971 ft 452 kts
2026-05-05 15:41 54.58229 9.68418 28385 ft 455 kts
2026-05-05 15:41 54.61307 9.69384 28774 ft 457 kts
2026-05-05 15:42 54.64463 9.70377 29147 ft 460 kts
2026-05-05 15:42 54.67582 9.71243 29565 ft 460 kts
2026-05-05 15:42 54.70733 9.72047 30073 ft 458 kts
2026-05-05 15:42 54.73871 9.72836 30570 ft 456 kts
2026-05-05 15:43 54.77006 9.73628 31026 ft 455 kts
2026-05-05 15:43 54.80127 9.74534 31452 ft 456 kts
2026-05-05 15:43 54.83226 9.75755 31892 ft 456 kts 11°
2026-05-05 15:43 54.86272 9.77298 32349 ft 455 kts 14°
2026-05-05 15:44 54.89256 9.79040 32802 ft 454 kts 15°
2026-05-05 15:44 54.92189 9.80815 33211 ft 452 kts 16°
2026-05-05 15:44 54.95160 9.82625 33556 ft 452 kts 16°
2026-05-05 15:44 54.98155 9.84448 33841 ft 453 kts 16°
2026-05-05 15:45 55.01104 9.86241 34096 ft 455 kts 16°
2026-05-05 15:45 55.04071 9.88044 34357 ft 456 kts 16°
2026-05-05 15:45 55.07063 9.89862 34603 ft 457 kts 16°
2026-05-05 15:45 55.10079 9.91696 34842 ft 458 kts 16°
2026-05-05 15:46 55.13107 9.93539 34921 ft 460 kts 16°
2026-05-05 15:46 55.19120 9.97210 34922 ft 460 kts 15°
2026-05-05 15:47 55.25162 10.00904 34918 ft 459 kts 15°
2026-05-05 15:47 55.31150 10.04574 34914 ft 459 kts 15°
2026-05-05 15:48 55.37172 10.08280 34913 ft 459 kts 15°
2026-05-05 15:48 55.43209 10.12009 34914 ft 459 kts 15°
2026-05-05 15:49 55.49194 10.15718 34924 ft 459 kts 15°
2026-05-05 15:49 55.55226 10.19466 34923 ft 459 kts 15°
2026-05-05 15:50 55.61251 10.23224 34917 ft 460 kts 15°
2026-05-05 15:50 55.67255 10.26982 34929 ft 460 kts 15°
2026-05-05 15:51 55.73251 10.30747 34919 ft 459 kts 15°
2026-05-05 15:51 55.79252 10.34527 34929 ft 459 kts 14°
2026-05-05 15:52 55.85261 10.38324 34924 ft 459 kts 14°
2026-05-05 15:52 55.91265 10.42133 34925 ft 459 kts 14°
2026-05-05 15:53 55.97259 10.45950 34915 ft 459 kts 14°
2026-05-05 15:53 56.03273 10.49793 34925 ft 459 kts 14°
2026-05-05 15:54 56.09255 10.53625 34922 ft 459 kts 14°
2026-05-05 15:54 56.15273 10.57492 34927 ft 459 kts 14°
2026-05-05 15:55 56.21238 10.61338 34876 ft 455 kts 14°
2026-05-05 15:55 56.24203 10.63258 34478 ft 452 kts 14°
2026-05-05 15:55 56.27174 10.65183 33863 ft 452 kts 15°
2026-05-05 15:55 56.30106 10.67084 33283 ft 451 kts 14°
2026-05-05 15:56 56.33065 10.69004 32652 ft 451 kts 14°
2026-05-05 15:56 56.36033 10.70932 31949 ft 452 kts 14°
2026-05-05 15:56 56.38958 10.72836 31240 ft 453 kts 14°
2026-05-05 15:56 56.41919 10.74767 30483 ft 456 kts 14°
2026-05-05 15:57 56.44895 10.76710 29686 ft 457 kts 14°
2026-05-05 15:57 56.47878 10.78661 28900 ft 459 kts 14°
2026-05-05 15:57 56.50858 10.80615 28224 ft 458 kts 14°
2026-05-05 15:57 56.53824 10.82566 27589 ft 456 kts 14°
2026-05-05 15:58 56.56808 10.84534 26973 ft 452 kts 14°
2026-05-05 15:58 56.59732 10.86467 26369 ft 449 kts 14°
2026-05-05 15:58 56.62635 10.88387 25761 ft 446 kts 14°
2026-05-05 15:58 56.65525 10.90300 25160 ft 443 kts 14°
2026-05-05 15:59 56.68419 10.92220 24567 ft 440 kts 14°
2026-05-05 15:59 56.71261 10.94106 23977 ft 437 kts 14°
2026-05-05 15:59 56.74091 10.95987 23407 ft 435 kts 14°
2026-05-05 15:59 56.76903 10.97857 22839 ft 431 kts 14°
2026-05-05 16:00 56.79691 10.99717 22356 ft 426 kts 14°
2026-05-05 16:00 56.82462 11.01570 21975 ft 419 kts 14°
2026-05-05 16:00 56.85167 11.03381 21605 ft 415 kts 14°
2026-05-05 16:00 56.87848 11.05175 21226 ft 413 kts 14°
2026-05-05 16:01 56.90525 11.06967 20848 ft 410 kts 14°
2026-05-05 16:01 56.93175 11.08745 20473 ft 408 kts 14°
2026-05-05 16:01 56.95858 11.10552 20097 ft 405 kts 14°
2026-05-05 16:01 56.98484 11.12322 19720 ft 403 kts 14°
2026-05-05 16:02 57.01089 11.14081 19342 ft 400 kts 14°
2026-05-05 16:02 57.03691 11.15837 18956 ft 398 kts 14°
2026-05-05 16:02 57.06283 11.17591 18584 ft 396 kts 14°
2026-05-05 16:02 57.08851 11.19332 18213 ft 394 kts 14°
2026-05-05 16:03 57.11399 11.21064 17842 ft 391 kts 14°
2026-05-05 16:03 57.13958 11.22803 17469 ft 389 kts 14°
2026-05-05 16:03 57.16443 11.24496 17090 ft 385 kts 13°
2026-05-05 16:03 57.18938 11.26341 16581 ft 387 kts 20°
2026-05-05 16:04 57.21215 11.28958 16072 ft 392 kts 33°
2026-05-05 16:04 57.23232 11.32415 15601 ft 394 kts 41°
2026-05-05 16:04 57.25066 11.36093 15136 ft 392 kts 43°
2026-05-05 16:04 57.26866 11.39802 14634 ft 390 kts 43°
2026-05-05 16:05 57.28667 11.43482 14170 ft 386 kts 43°
2026-05-05 16:05 57.30459 11.47100 13729 ft 382 kts 43°
2026-05-05 16:05 57.32250 11.50687 13305 ft 378 kts 42°
2026-05-05 16:05 57.34014 11.54218 12897 ft 374 kts 42°
2026-05-05 16:06 57.35763 11.57718 12494 ft 369 kts 42°
2026-05-05 16:06 57.37490 11.61179 12072 ft 365 kts 42°
2026-05-05 16:06 57.39207 11.64627 11674 ft 360 kts 42°
2026-05-05 16:06 57.40885 11.68002 11249 ft 356 kts 43°
2026-05-05 16:07 57.42531 11.71316 10844 ft 351 kts 43°
2026-05-05 16:07 57.44183 11.74652 10445 ft 346 kts 43°
2026-05-05 16:07 57.45770 11.77865 10234 ft 335 kts 43°
2026-05-05 16:07 57.47321 11.81006 9998 ft 321 kts 43°
2026-05-05 16:08 57.48790 11.83990 9753 ft 308 kts 43°
2026-05-05 16:08 57.50211 11.86877 9555 ft 298 kts 43°
2026-05-05 16:08 57.51588 11.89675 9283 ft 293 kts 43°
2026-05-05 16:08 57.52947 11.92432 8917 ft 290 kts 43°
2026-05-05 16:09 57.54299 11.95177 8572 ft 287 kts 42°
2026-05-05 16:09 57.55748 11.97648 8208 ft 280 kts 32°
2026-05-05 16:09 57.57375 11.99557 7860 ft 274 kts 24°
2026-05-05 16:09 57.59042 12.01193 7559 ft 272 kts 22°
2026-05-05 16:10 57.60721 12.02796 7258 ft 271 kts 23°
2026-05-05 16:10 57.62389 12.04401 6942 ft 269 kts 23°
2026-05-05 16:10 57.64028 12.05992 6635 ft 268 kts 24°
2026-05-05 16:10 57.65685 12.07610 6332 ft 267 kts 24°
2026-05-05 16:11 57.67329 12.09220 6055 ft 265 kts 24°
2026-05-05 16:11 57.72223 12.14027 5928 ft 266 kts 24°
2026-05-05 16:12 57.73838 12.15617 5756 ft 265 kts 24°
2026-05-05 16:12 57.77088 12.18817 5253 ft 264 kts 24°
2026-05-05 16:13 57.81902 12.23576 4827 ft 256 kts 24°
2026-05-05 16:13 57.83450 12.25110 4603 ft 249 kts 24°
2026-05-05 16:13 57.84956 12.26601 4391 ft 240 kts 24°
2026-05-05 16:14 57.87156 12.30922 3969 ft 247 kts 77°
2026-05-05 16:14 57.87202 12.37362 3570 ft 245 kts 89°
2026-05-05 16:15 57.86018 12.42914 3162 ft 237 kts 150°
2026-05-05 16:15 57.82881 12.43085 2828 ft 230 kts 201°
2026-05-05 16:16 57.80070 12.40587 2478 ft 216 kts 211°
2026-05-05 16:16 57.77531 12.38184 2607 ft 202 kts 209°
2026-05-05 16:17 57.75042 12.35939 2151 ft 187 kts 209°
2026-05-05 16:17 57.73916 12.34925 1921 ft 173 kts 210°
2026-05-05 16:18 57.71921 12.33116 1465 ft 146 kts 210°
2026-05-05 16:18 57.71049 12.32323 1269 ft 135 kts 210°
2026-05-05 16:18 57.69387 12.30809 938 ft 133 kts 209°
2026-05-05 16:19 57.68555 12.30053 755 ft 132 kts 209°
2026-05-05 16:19 57.67729 12.29303 563 ft 131 kts 209°
2026-05-05 16:19 57.66446 12.28128 511 ft 52 kts 205°
2026-05-05 16:20 57.66151 12.27953 510 ft 7 kts 141°
2026-05-05 16:20 57.66105 12.28108 511 ft 7 kts 94°
2026-05-05 16:21 57.66221 12.28268 512 ft 15 kts 26°
2026-05-05 16:22 57.66523 12.28540 512 ft 16 kts 26°
2026-05-05 16:22 57.66728 12.28730 513 ft 15 kts 25°
2026-05-05 16:23 57.66820 12.28919 513 ft 11 kts 111°
2026-05-05 16:23 57.66783 12.29059 514 ft 12 kts 114°
2026-05-05 16:23 57.66733 12.29256 514 ft 4 kts 115°
2026-05-05 16:24 57.66728 12.29277 514 ft 0 kts 116°